Home   Weather   Argentina   Buenos Aires   Past weeks
Flag for Argentina

Past Weather in Buenos Aires, Argentina — Yesterday and Last 2 Weeks

Currently: 63 °F. Fog. (Weather station: Buenos Aires Airport, Argentina). See more current weather

Past Weather in Buenos Aires — Graph

°F

Buenos Aires Temperature Yesterday

Maximum temperature yesterday: 57 °F (at 4:00 pm)
Minimum temperature yesterday: 52 °F (at 12:00 am)
Average temperature yesterday: 53 °F

High & Low Weather Summary for the Past Weeks

 TemperatureHumidityPressure
High64 °F (Jul 24, 10:00 am)100% (Jul 17, 1:00 am)30.60 "Hg (Jul 17, 1:00 am)
Low37 °F (Jul 10, 4:00 am)36% (Jul 12, 1:00 pm)29.92 "Hg (Jul 24, 3:00 pm)
Average51 °F77%30.27 "Hg
* Reported Jul 9 7:00 pm — Jul 24 7:00 pm, Buenos Aires. Weather by CustomWeather, © 2024

Note: Actual official high and low records may vary slightly from our data, if they occured in-between our weather recording intervals... More about our weather records

Buenos Aires Weather History for the Previous 24 Hours

Scroll right to see more
 ConditionsComfort  
Time TempWeatherWind HumidityBarometerVisibility
7:00 pm
Wed, Jul 24
63 °FFog.5 mph94%29.95 "Hg3 mi
6:16 pm63 °FFog.5 mph94%29.95 "Hg2 mi
5:00 pm63 °FFog.2 mph94%29.92 "Hg2 mi
4:00 pm63 °FFog.3 mph94%29.92 "Hg2 mi
3:40 pm61 °FThunderstorms. Fog.5 mph94%29.95 "Hg2 mi
3:26 pm63 °FThunderstorms. Fog.6 mph94%29.95 "Hg2 mi
3:00 pm61 °FFog.7 mph94%29.92 "Hg3 mi
2:00 pm63 °FClear.5 mph88%29.95 "Hg4 mi
1:00 pm61 °FClear.5 mph88%29.98 "Hg5 mi
12:00 pm61 °FLight rain. Overcast.3 mph88%29.98 "Hg4 mi
11:00 am63 °FClear.6 mph83%29.98 "Hg6 mi
10:00 am64 °FClear.8 mph78%29.98 "Hg6 mi
9:00 am63 °FClear.3 mph83%29.98 "Hg6 mi
8:00 am61 °FSunny.No wind83%29.95 "Hg10 mi
7:00 am61 °FClear.2 mph83%29.95 "Hg10 mi
6:00 am61 °FClear.2 mph83%29.95 "Hg10 mi
5:00 am59 °FClear.1 mph88%29.95 "Hg10 mi
4:00 am59 °FClear.2 mph88%29.95 "Hg4 mi
3:00 am57 °FClear.3 mph94%29.98 "Hg4 mi
2:00 am57 °FFog.6 mph94%29.98 "Hg2 mi
1:00 am55 °FFog.7 mph100%29.98 "Hg2 mi
12:00 am57 °FFog.6 mph94%30.01 "Hg2 mi
11:00 pm
Tue, Jul 23
55 °FFog.6 mph94%30.01 "Hg2 mi
10:00 pm55 °FFog.3 mph94%30.04 "Hg2 mi
9:34 pm54 °FFog.6 mph100%30.04 "Hg2 mi
9:00 pm52 °FFog.6 mph100%30.04 "Hg1 mi
8:49 pm52 °FFog.6 mph100%30.04 "Hg1 mi
8:00 pm54 °FFog.8 mph94%30.04 "Hg0 mi
Weather by CustomWeather, © 2024

See weather overview